Climatologie pour Saint-Brevin les Pins
Jour • Résumé pour février 13, 2017 Système :  Métrique    Anglais   Mixte
« - 1 jour
+ 1 jour »
Jour Semaine Mois Année Personnalisé
  Maximum : Minimum : Moyenne :
Température sous abri : 14.8 °C 9.1 °C 11.3 °C
Point de rosée : 10.4 °C 5.8 °C 7.7 °C
Humidité : 95 % 66 % 79 %
Vitesse du vent : 33.8 km/h 0.0 km/h 12.4 km/h
Rafale : 38.6 km/h - -
Direction :- - ESE
Pression : 1012.4 hPa 1007.0 hPa -
Précipitations : 4.8 mm    
Historical Graphs
 
 
Tableau de données pour février 13, 2017
Heure Tempé Pt rosée Pression Vent Vitesse Rafale Humidité Taux pluie (/hr) Soleil
00:00 9.1 °C 6.7 °C 1008.0 hPa East 12.9 km/h 35.4 km/h 85 % 0.0 mm 0 W/m2
00:10 9.2 °C 6.6 °C 1008.0 hPa East 9.7 km/h 25.7 km/h 84 % 0.0 mm 0 W/m2
00:15 9.2 °C 6.6 °C 1008.0 hPa East 16.1 km/h 33.8 km/h 84 % 0.0 mm 0 W/m2
00:20 9.3 °C 6.7 °C 1008.0 hPa ENE 24.1 km/h 33.8 km/h 84 % 0.0 mm 0 W/m2
00:25 9.3 °C 6.5 °C 1008.0 hPa ESE 11.3 km/h 29.0 km/h 83 % 0.0 mm 0 W/m2
00:30 9.2 °C 6.4 °C 1008.0 hPa ESE 20.9 km/h 29.0 km/h 83 % 0.0 mm 0 W/m2
00:35 9.2 °C 6.4 °C 1008.0 hPa ENE 8.0 km/h 35.4 km/h 83 % 0.0 mm 0 W/m2
00:40 9.1 °C 6.5 °C 1008.0 hPa ESE 4.8 km/h 35.4 km/h 84 % 0.0 mm 0 W/m2
00:45 9.1 °C 6.4 °C 1008.0 hPa ESE 25.7 km/h 27.4 km/h 83 % 0.0 mm 0 W/m2
00:55 9.2 °C 6.4 °C 1008.0 hPa ESE 16.1 km/h 29.0 km/h 83 % 0.0 mm 0 W/m2
01:00 9.2 °C 6.4 °C 1008.0 hPa ESE 14.5 km/h 29.0 km/h 83 % 0.0 mm 0 W/m2
01:10 9.2 °C 6.5 °C 1008.4 hPa ESE 16.1 km/h 29.0 km/h 83 % 0.0 mm 0 W/m2
01:15 9.3 °C 6.4 °C 1008.4 hPa East 29.0 km/h 30.6 km/h 82 % 0.0 mm 0 W/m2
01:25 9.4 °C 6.5 °C 1008.4 hPa East 12.9 km/h 29.0 km/h 82 % 0.0 mm 0 W/m2
01:30 9.4 °C 6.5 °C 1008.4 hPa East 11.3 km/h 27.4 km/h 82 % 0.0 mm 0 W/m2
01:40 9.6 °C 6.5 °C 1008.0 hPa SSE 11.3 km/h 30.6 km/h 81 % 0.0 mm 0 W/m2
01:45 9.6 °C 6.5 °C 1008.0 hPa East 25.7 km/h 30.6 km/h 81 % 0.0 mm 0 W/m2
01:55 9.6 °C 6.3 °C 1007.7 hPa ENE 14.5 km/h 29.0 km/h 80 % 0.0 mm 0 W/m2
02:00 9.5 °C 6.2 °C 1007.7 hPa ESE 22.5 km/h 29.0 km/h 80 % 0.0 mm 0 W/m2
02:10 9.4 °C 6.3 °C 1007.7 hPa ESE 22.5 km/h 32.2 km/h 81 % 0.0 mm 0 W/m2
02:15 9.4 °C 6.3 °C 1008.0 hPa ESE 11.3 km/h 35.4 km/h 81 % 0.0 mm 0 W/m2
02:25 9.5 °C 6.2 °C 1008.0 hPa East 16.1 km/h 30.6 km/h 80 % 0.0 mm 0 W/m2
02:30 9.4 °C 6.2 °C 1008.0 hPa ESE 17.7 km/h 30.6 km/h 80 % 0.0 mm 0 W/m2
02:40 9.6 °C 6.3 °C 1008.0 hPa East 24.1 km/h 30.6 km/h 80 % 0.0 mm 0 W/m2
02:45 9.8 °C 6.3 °C 1008.0 hPa East 16.1 km/h 37.0 km/h 79 % 0.0 mm 0 W/m2
02:50 9.7 °C 6.3 °C 1008.0 hPa SE 16.1 km/h 37.0 km/h 79 % 0.0 mm 0 W/m2
02:55 9.7 °C 6.3 °C 1008.0 hPa East 24.1 km/h 33.8 km/h 79 % 0.0 mm 0 W/m2
03:00 9.7 °C 6.2 °C 1008.0 hPa SE 4.8 km/h 33.8 km/h 79 % 0.0 mm 0 W/m2
03:10 9.8 °C 6.4 °C 1008.0 hPa SSE 6.4 km/h 33.8 km/h 79 % 0.0 mm 0 W/m2
03:15 9.8 °C 6.3 °C 1008.0 hPa SE 19.3 km/h 32.2 km/h 79 % 0.0 mm 0 W/m2
03:20 9.8 °C 6.3 °C 1007.7 hPa ESE 19.3 km/h 30.6 km/h 79 % 0.0 mm 0 W/m2
03:25 9.8 °C 6.2 °C 1007.7 hPa East 12.9 km/h 32.2 km/h 78 % 0.0 mm 0 W/m2
03:30 9.8 °C 6.3 °C 1007.7 hPa ESE 16.1 km/h 32.2 km/h 79 % 0.0 mm 0 W/m2
03:40 9.8 °C 6.4 °C 1007.7 hPa ESE 17.7 km/h 32.2 km/h 79 % 0.0 mm 0 W/m2
03:50 9.9 °C 6.3 °C 1007.3 hPa ESE 9.7 km/h 32.2 km/h 78 % 0.0 mm 0 W/m2
04:00 9.9 °C 6.3 °C 1007.3 hPa SE 16.1 km/h 35.4 km/h 78 % 0.0 mm 0 W/m2
04:10 9.9 °C 6.3 °C 1007.0 hPa SE 11.3 km/h 33.8 km/h 78 % 0.0 mm 0 W/m2
04:20 10.0 °C 6.3 °C 1007.0 hPa East 12.9 km/h 27.4 km/h 78 % 0.0 mm 0 W/m2
04:25 9.9 °C 6.3 °C 1007.0 hPa ESE 25.7 km/h 27.4 km/h 78 % 0.0 mm 0 W/m2
04:30 9.9 °C 6.2 °C 1007.0 hPa ESE 11.3 km/h 33.8 km/h 78 % 0.0 mm 0 W/m2
04:40 9.9 °C 6.3 °C 1007.0 hPa ESE 22.5 km/h 35.4 km/h 78 % 0.0 mm 0 W/m2
04:45 9.9 °C 6.3 °C 1007.0 hPa East 24.1 km/h 35.4 km/h 78 % 0.0 mm 0 W/m2
04:50 9.9 °C 6.3 °C 1007.0 hPa ESE 22.5 km/h 29.0 km/h 78 % 0.0 mm 0 W/m2
04:55 10.0 °C 6.2 °C 1007.0 hPa East 20.9 km/h 38.6 km/h 77 % 0.0 mm 0 W/m2
05:00 10.1 °C 6.3 °C 1007.0 hPa SE 12.9 km/h 38.6 km/h 77 % 0.0 mm 0 W/m2
05:10 10.1 °C 6.2 °C 1007.0 hPa East 22.5 km/h 33.8 km/h 77 % 0.0 mm 0 W/m2
05:15 10.1 °C 6.2 °C 1007.3 hPa ESE 16.1 km/h 37.0 km/h 77 % 0.0 mm 0 W/m2
05:20 10.0 °C 6.2 °C 1007.0 hPa East 20.9 km/h 37.0 km/h 77 % 0.0 mm 0 W/m2
05:25 10.0 °C 6.2 °C 1007.0 hPa ENE 12.9 km/h 30.6 km/h 77 % 0.0 mm 0 W/m2
05:35 10.0 °C 6.2 °C 1007.3 hPa ESE 14.5 km/h 29.0 km/h 77 % 0.0 mm 0 W/m2
05:40 10.1 °C 6.2 °C 1007.3 hPa SSE 16.1 km/h 35.4 km/h 77 % 0.0 mm 0 W/m2
05:45 10.1 °C 6.2 °C 1007.7 hPa ESE 27.4 km/h 35.4 km/h 77 % 0.0 mm 0 W/m2
05:50 10.2 °C 6.1 °C 1007.3 hPa ESE 22.5 km/h 35.4 km/h 76 % 0.0 mm 0 W/m2
06:00 10.0 °C 6.2 °C 1007.7 hPa ESE 12.9 km/h 37.0 km/h 77 % 0.0 mm 0 W/m2
06:10 9.9 °C 6.1 °C 1007.7 hPa East 25.7 km/h 38.6 km/h 77 % 0.0 mm 0 W/m2
06:15 9.9 °C 6.1 °C 1007.3 hPa East 16.1 km/h 38.6 km/h 77 % 0.0 mm 0 W/m2
06:20 9.9 °C 6.0 °C 1007.3 hPa ESE 33.8 km/h 33.8 km/h 77 % 0.0 mm 0 W/m2
06:25 9.9 °C 6.0 °C 1007.7 hPa East 11.3 km/h 33.8 km/h 77 % 0.0 mm 0 W/m2
06:30 9.8 °C 6.0 °C 1007.7 hPa SE 14.5 km/h 33.8 km/h 77 % 0.0 mm 0 W/m2
06:40 9.7 °C 5.8 °C 1007.3 hPa SE 16.1 km/h 30.6 km/h 77 % 0.0 mm 0 W/m2
06:45 9.6 °C 6.0 °C 1007.7 hPa ESE 12.9 km/h 30.6 km/h 78 % 0.0 mm 0 W/m2
06:50 9.6 °C 5.9 °C 1007.7 hPa SE 24.1 km/h 29.0 km/h 78 % 0.0 mm 0 W/m2
07:00 9.6 °C 6.0 °C 1007.7 hPa ESE 11.3 km/h 27.4 km/h 78 % 0.0 mm 0 W/m2
07:05 9.6 °C 6.0 °C 1007.7 hPa ESE 16.1 km/h 27.4 km/h 78 % 0.0 mm 0 W/m2
07:10 9.6 °C 6.0 °C 1007.7 hPa ESE 24.1 km/h 27.4 km/h 78 % 0.0 mm 0 W/m2
07:20 9.6 °C 6.0 °C 1008.0 hPa East 12.9 km/h 37.0 km/h 78 % 0.0 mm 0 W/m2
07:25 9.7 °C 6.0 °C 1008.0 hPa SE 11.3 km/h 37.0 km/h 78 % 0.0 mm 0 W/m2
07:30 9.7 °C 5.9 °C 1008.0 hPa ESE 14.5 km/h 29.0 km/h 77 % 0.0 mm 0 W/m2
07:40 9.8 °C 5.9 °C 1008.0 hPa ESE 12.9 km/h 27.4 km/h 77 % 0.0 mm 0 W/m2
07:45 9.8 °C 5.9 °C 1008.0 hPa ESE 20.9 km/h 27.4 km/h 77 % 0.0 mm 0 W/m2
07:50 9.8 °C 6.0 °C 1008.0 hPa SE 19.3 km/h 27.4 km/h 77 % 0.0 mm 0 W/m2
07:55 9.9 °C 6.1 °C 1008.4 hPa ESE 12.9 km/h 32.2 km/h 77 % 0.0 mm 0 W/m2
08:00 9.9 °C 6.1 °C 1008.4 hPa SSE 11.3 km/h 32.2 km/h 77 % 0.0 mm 0 W/m2
08:10 9.8 °C 6.0 °C 1008.4 hPa ESE 11.3 km/h 27.4 km/h 77 % 0.0 mm 0 W/m2
08:15 9.8 °C 6.0 °C 1008.4 hPa ESE 22.5 km/h 30.6 km/h 77 % 0.0 mm 0 W/m2
08:25 9.9 °C 6.1 °C 1008.7 hPa East 16.1 km/h 25.7 km/h 77 % 0.0 mm 0 W/m2
08:30 9.9 °C 6.3 °C 1008.7 hPa ESE 12.9 km/h 25.7 km/h 78 % 0.0 mm 0 W/m2
08:40 9.8 °C 6.5 °C 1008.7 hPa ENE 11.3 km/h 25.7 km/h 80 % 0.0 mm 0 W/m2
08:45 9.6 °C 6.6 °C 1008.7 hPa SE 17.7 km/h 25.7 km/h 82 % 0.0 mm 0 W/m2
08:55 9.4 °C 6.5 °C 1008.7 hPa SE 12.9 km/h 25.7 km/h 82 % 0.0 mm 5 W/m2
09:00 9.4 °C 6.6 °C 1008.7 hPa East 8.0 km/h 24.1 km/h 83 % 0.0 mm 9 W/m2
09:15 9.5 °C 6.6 °C 1008.7 hPa ENE 8.0 km/h 24.1 km/h 82 % 0.3 mm 12 W/m2
09:20 9.6 °C 6.6 °C 1008.7 hPa East 9.7 km/h 24.1 km/h 82 % 0.3 mm 18 W/m2
09:25 9.6 °C 6.5 °C 1009.0 hPa ESE 12.9 km/h 27.4 km/h 81 % 0.3 mm 21 W/m2
09:30 9.7 °C 6.6 °C 1009.0 hPa SE 11.3 km/h 27.4 km/h 81 % 0.3 mm 26 W/m2
09:40 9.7 °C 6.4 °C 1008.7 hPa East 11.3 km/h 27.4 km/h 80 % 0.3 mm 33 W/m2
09:45 9.8 °C 6.5 °C 1009.0 hPa East 9.7 km/h 25.7 km/h 80 % 0.3 mm 39 W/m2
09:50 9.8 °C 6.7 °C 1009.0 hPa ESE 16.1 km/h 24.1 km/h 81 % 0.3 mm 44 W/m2
09:55 9.7 °C 6.6 °C 1009.0 hPa SE 16.1 km/h 22.5 km/h 81 % 0.3 mm 51 W/m2
10:00 9.7 °C 6.6 °C 1009.0 hPa SE 11.3 km/h 24.1 km/h 81 % 0.3 mm 56 W/m2
10:05 9.8 °C 6.7 °C 1009.0 hPa East 8.0 km/h 24.1 km/h 81 % 0.3 mm 60 W/m2
10:10 9.8 °C 6.7 °C 1008.7 hPa East 3.2 km/h 24.1 km/h 81 % 0.0 mm 60 W/m2
10:15 9.8 °C 6.7 °C 1008.7 hPa ESE 19.3 km/h 24.1 km/h 81 % 0.0 mm 58 W/m2
10:20 9.9 °C 6.8 °C 1009.0 hPa ESE 22.5 km/h 24.1 km/h 81 % 0.0 mm 65 W/m2
10:25 9.9 °C 6.8 °C 1009.0 hPa ESE 19.3 km/h 27.4 km/h 81 % 0.0 mm 95 W/m2
10:30 10.1 °C 6.8 °C 1008.7 hPa ENE 8.0 km/h 27.4 km/h 80 % 0.0 mm 128 W/m2
10:40 10.4 °C 7.0 °C 1008.7 hPa ESE 16.1 km/h 27.4 km/h 79 % 0.0 mm 120 W/m2
10:45 10.6 °C 7.1 °C 1008.7 hPa ESE 11.3 km/h 27.4 km/h 79 % 0.0 mm 132 W/m2
10:55 10.7 °C 7.0 °C 1008.7 hPa ESE 11.3 km/h 27.4 km/h 78 % 0.0 mm 107 W/m2
11:00 10.7 °C 7.0 °C 1008.4 hPa ESE 14.5 km/h 29.0 km/h 78 % 0.0 mm 123 W/m2
11:10 10.9 °C 7.0 °C 1008.4 hPa East 14.5 km/h 27.4 km/h 77 % 0.0 mm 162 W/m2
11:15 11.1 °C 7.2 °C 1008.4 hPa East 14.5 km/h 27.4 km/h 77 % 0.0 mm 160 W/m2
11:20 11.2 °C 7.3 °C 1008.4 hPa ESE 17.7 km/h 24.1 km/h 77 % 0.0 mm 130 W/m2
11:25 11.3 °C 7.2 °C 1008.4 hPa ENE 16.1 km/h 25.7 km/h 76 % 0.0 mm 139 W/m2
11:30 11.4 °C 7.4 °C 1008.4 hPa SE 14.5 km/h 35.4 km/h 76 % 0.0 mm 149 W/m2
11:40 11.7 °C 7.4 °C 1008.4 hPa ESE 25.7 km/h 33.8 km/h 75 % 0.0 mm 156 W/m2
11:45 11.8 °C 7.5 °C 1008.4 hPa East 16.1 km/h 33.8 km/h 75 % 0.0 mm 149 W/m2
11:50 11.9 °C 7.4 °C 1008.4 hPa ESE 14.5 km/h 33.8 km/h 74 % 0.0 mm 128 W/m2
11:55 12.0 °C 7.5 °C 1008.7 hPa SSE 9.7 km/h 30.6 km/h 74 % 0.0 mm 144 W/m2
12:00 12.1 °C 7.6 °C 1008.4 hPa ENE 17.7 km/h 29.0 km/h 74 % 0.0 mm 137 W/m2
12:10 12.3 °C 7.6 °C 1008.4 hPa SE 17.7 km/h 33.8 km/h 73 % 0.0 mm 123 W/m2
12:15 12.4 °C 7.7 °C 1008.4 hPa East 16.1 km/h 33.8 km/h 73 % 0.0 mm 156 W/m2
12:20 12.6 °C 7.8 °C 1008.4 hPa East 9.7 km/h 29.0 km/h 73 % 0.0 mm 229 W/m2
12:25 12.8 °C 7.9 °C 1008.4 hPa East 12.9 km/h 29.0 km/h 72 % 0.0 mm 211 W/m2
12:30 12.9 °C 7.8 °C 1008.4 hPa East 11.3 km/h 33.8 km/h 71 % 0.0 mm 163 W/m2
12:40 12.8 °C 7.7 °C 1008.4 hPa East 14.5 km/h 29.0 km/h 71 % 0.0 mm 118 W/m2
12:45 12.8 °C 7.7 °C 1008.4 hPa East 11.3 km/h 29.0 km/h 71 % 0.0 mm 139 W/m2
12:55 13.1 °C 8.0 °C 1008.4 hPa ESE 19.3 km/h 27.4 km/h 71 % 0.0 mm 190 W/m2
13:05 13.5 °C 8.1 °C 1008.4 hPa East 20.9 km/h 33.8 km/h 70 % 0.0 mm 190 W/m2
13:10 13.6 °C 8.0 °C 1008.4 hPa ESE 24.1 km/h 35.4 km/h 69 % 0.0 mm 183 W/m2
13:15 13.7 °C 8.1 °C 1008.4 hPa ESE 17.7 km/h 35.4 km/h 69 % 0.0 mm 186 W/m2
13:20 13.8 °C 8.2 °C 1008.4 hPa ESE 16.1 km/h 35.4 km/h 69 % 0.0 mm 179 W/m2
13:25 13.9 °C 8.1 °C 1008.4 hPa ESE 8.0 km/h 35.4 km/h 68 % 0.0 mm 139 W/m2
13:30 13.8 °C 8.0 °C 1008.4 hPa SE 16.1 km/h 32.2 km/h 68 % 0.0 mm 141 W/m2
13:35 13.8 °C 8.2 °C 1008.4 hPa ESE 17.7 km/h 27.4 km/h 69 % 0.0 mm 120 W/m2
13:40 13.8 °C 8.0 °C 1008.4 hPa East 24.1 km/h 33.8 km/h 68 % 0.0 mm 121 W/m2
13:50 13.8 °C 8.0 °C 1008.4 hPa SE 20.9 km/h 32.2 km/h 68 % 0.0 mm 120 W/m2
13:55 13.8 °C 8.0 °C 1008.4 hPa ESE 11.3 km/h 29.0 km/h 68 % 0.0 mm 135 W/m2
14:00 13.8 °C 8.0 °C 1008.4 hPa ESE 11.3 km/h 27.4 km/h 68 % 0.0 mm 132 W/m2
14:10 13.8 °C 8.0 °C 1008.4 hPa ESE 6.4 km/h 32.2 km/h 68 % 0.0 mm 116 W/m2
14:15 13.8 °C 8.2 °C 1008.4 hPa ESE 16.1 km/h 30.6 km/h 69 % 0.0 mm 148 W/m2
14:25 14.1 °C 8.2 °C 1008.7 hPa SE 9.7 km/h 27.4 km/h 68 % 0.0 mm 227 W/m2
14:35 14.4 °C 8.6 °C 1008.4 hPa ESE 6.4 km/h 27.4 km/h 68 % 0.0 mm 260 W/m2
14:40 14.7 °C 8.8 °C 1008.4 hPa ESE 22.5 km/h 27.4 km/h 68 % 0.0 mm 283 W/m2
14:50 14.8 °C 8.5 °C 1008.4 hPa ESE 20.9 km/h 29.0 km/h 66 % 0.0 mm 214 W/m2
14:55 14.8 °C 8.7 °C 1008.7 hPa SE 16.1 km/h 29.0 km/h 67 % 0.0 mm 211 W/m2
15:00 14.7 °C 8.4 °C 1008.7 hPa SE 6.4 km/h 27.4 km/h 66 % 0.0 mm 190 W/m2
15:10 14.7 °C 8.6 °C 1008.7 hPa East 11.3 km/h 27.4 km/h 67 % 0.0 mm 176 W/m2
15:15 14.6 °C 8.5 °C 1008.7 hPa SE 8.0 km/h 27.4 km/h 67 % 0.0 mm 172 W/m2
15:20 14.6 °C 8.5 °C 1008.7 hPa East 4.8 km/h 29.0 km/h 67 % 0.0 mm 171 W/m2
15:25 14.6 °C 8.5 °C 1009.0 hPa ESE 16.1 km/h 29.0 km/h 67 % 0.0 mm 148 W/m2
15:30 14.6 °C 8.7 °C 1008.7 hPa SE 12.9 km/h 24.1 km/h 68 % 0.0 mm 146 W/m2
15:40 14.6 °C 8.7 °C 1009.0 hPa ESE 6.4 km/h 24.1 km/h 68 % 0.0 mm 155 W/m2
15:45 14.6 °C 8.8 °C 1009.0 hPa ESE 6.4 km/h 20.9 km/h 68 % 0.0 mm 141 W/m2
15:50 14.6 °C 8.8 °C 1009.0 hPa ESE 8.0 km/h 19.3 km/h 68 % 0.0 mm 113 W/m2
16:00 14.4 °C 8.6 °C 1009.0 hPa ESE 4.8 km/h 22.5 km/h 68 % 0.0 mm 74 W/m2
16:10 14.4 °C 8.8 °C 1009.0 hPa ESE 11.3 km/h 20.9 km/h 69 % 0.0 mm 74 W/m2
16:15 14.3 °C 8.7 °C 1009.0 hPa ESE 8.0 km/h 17.7 km/h 69 % 0.0 mm 65 W/m2
16:25 14.2 °C 8.6 °C 1009.0 hPa East 4.8 km/h 22.5 km/h 69 % 0.0 mm 62 W/m2
16:30 14.3 °C 8.7 °C 1009.0 hPa East 3.2 km/h 22.5 km/h 69 % 0.0 mm 58 W/m2
16:35 14.2 °C 8.8 °C 1009.0 hPa ENE 3.2 km/h 20.9 km/h 70 % 0.0 mm 58 W/m2
16:40 14.2 °C 8.8 °C 1009.0 hPa ESE 12.9 km/h 19.3 km/h 70 % 0.0 mm 58 W/m2
16:45 14.2 °C 8.8 °C 1009.4 hPa SE 9.7 km/h 19.3 km/h 70 % 0.0 mm 56 W/m2
16:55 14.3 °C 8.7 °C 1009.4 hPa SSE 14.5 km/h 22.5 km/h 69 % 0.0 mm 42 W/m2
17:00 14.2 °C 8.6 °C 1009.4 hPa ESE 8.0 km/h 17.7 km/h 69 % 0.0 mm 32 W/m2
17:10 14.2 °C 8.6 °C 1009.4 hPa ENE 8.0 km/h 22.5 km/h 69 % 0.0 mm 23 W/m2
17:15 14.1 °C 8.7 °C 1009.4 hPa ESE 14.5 km/h 14.5 km/h 70 % 0.0 mm 19 W/m2
17:25 14.0 °C 8.6 °C 1009.7 hPa ESE 12.9 km/h 17.7 km/h 70 % 0.0 mm 16 W/m2
17:30 13.9 °C 8.6 °C 1009.7 hPa ESE 16.1 km/h 19.3 km/h 70 % 0.0 mm 14 W/m2
17:40 13.8 °C 8.5 °C 1009.7 hPa ESE 14.5 km/h 22.5 km/h 70 % 0.0 mm 7 W/m2
17:45 13.8 °C 8.4 °C 1010.0 hPa SE 11.3 km/h 22.5 km/h 70 % 0.0 mm 7 W/m2
17:50 13.8 °C 8.4 °C 1010.0 hPa South 11.3 km/h 19.3 km/h 70 % 0.0 mm 5 W/m2
18:00 13.7 °C 8.3 °C 1010.0 hPa SSE 9.7 km/h 19.3 km/h 70 % 0.0 mm 0 W/m2
18:10 13.7 °C 8.3 °C 1010.0 hPa East 8.0 km/h 17.7 km/h 70 % 0.0 mm 0 W/m2
18:15 13.6 °C 8.2 °C 1010.0 hPa SE 3.2 km/h 17.7 km/h 70 % 0.0 mm 0 W/m2
18:20 13.6 °C 8.4 °C 1010.0 hPa SSE 6.4 km/h 14.5 km/h 71 % 0.0 mm 0 W/m2
18:25 13.4 °C 8.4 °C 1010.4 hPa South 6.4 km/h 9.7 km/h 72 % 0.0 mm 0 W/m2
18:30 13.3 °C 8.3 °C 1010.4 hPa SSW 8.0 km/h 11.3 km/h 72 % 0.0 mm 0 W/m2
18:40 13.4 °C 8.2 °C 1010.4 hPa ESE 1.6 km/h 17.7 km/h 71 % 0.0 mm 0 W/m2
18:45 13.2 °C 8.5 °C 1010.4 hPa ESE 1.6 km/h 16.1 km/h 73 % 0.0 mm 0 W/m2
18:50 13.0 °C 8.7 °C 1010.7 hPa SE 1.6 km/h 11.3 km/h 75 % 0.0 mm 0 W/m2
19:00 12.7 °C 8.7 °C 1011.1 hPa SE 8.0 km/h 9.7 km/h 77 % 0.0 mm 0 W/m2
19:10 12.3 °C 9.0 °C 1011.1 hPa SSE 4.8 km/h 16.1 km/h 80 % 0.3 mm 0 W/m2
19:15 12.1 °C 9.1 °C 1011.1 hPa SE 4.8 km/h 8.0 km/h 82 % 0.3 mm 0 W/m2
19:20 11.8 °C 9.2 °C 1011.1 hPa ESE 3.2 km/h 8.0 km/h 84 % 0.5 mm 0 W/m2
19:30 11.4 °C 9.3 °C 1011.4 hPa SE 3.2 km/h 6.4 km/h 87 % 0.5 mm 0 W/m2
19:40 11.1 °C 9.4 °C 1011.4 hPa ESE 3.2 km/h 8.0 km/h 89 % 0.8 mm 0 W/m2
19:45 11.1 °C 9.5 °C 1011.4 hPa ESE 4.8 km/h 8.0 km/h 90 % 0.8 mm 0 W/m2
19:50 11.0 °C 9.4 °C 1011.4 hPa ESE 3.2 km/h 8.0 km/h 90 % 1.0 mm 0 W/m2
20:05 10.9 °C 9.5 °C 1011.4 hPa ESE 3.2 km/h 9.7 km/h 91 % 1.5 mm 0 W/m2
20:10 10.9 °C 9.6 °C 1011.7 hPa Calm   9.7 km/h 92 % 1.3 mm 0 W/m2
20:15 10.9 °C 9.6 °C 1011.4 hPa ESE 3.2 km/h 8.0 km/h 92 % 1.5 mm 0 W/m2
20:20 10.9 °C 9.6 °C 1011.4 hPa ESE 6.4 km/h 8.0 km/h 92 % 1.3 mm 0 W/m2
20:25 10.9 °C 9.9 °C 1011.4 hPa SE 4.8 km/h 17.7 km/h 93 % 1.5 mm 0 W/m2
20:30 11.0 °C 9.9 °C 1011.7 hPa SE 6.4 km/h 17.7 km/h 93 % 1.3 mm 0 W/m2
20:35 11.1 °C 10.0 °C 1011.7 hPa ESE 1.6 km/h 12.9 km/h 93 % 1.5 mm 0 W/m2
20:40 11.1 °C 10.0 °C 1011.7 hPa ESE 4.8 km/h 14.5 km/h 93 % 1.5 mm 0 W/m2
20:50 11.1 °C 10.0 °C 1011.7 hPa ESE 4.8 km/h 12.9 km/h 93 % 1.8 mm 0 W/m2
20:55 11.1 °C 10.2 °C 1011.7 hPa ESE 6.4 km/h 12.9 km/h 94 % 1.5 mm 0 W/m2
21:00 11.1 °C 10.2 °C 1011.7 hPa SE 6.4 km/h 12.9 km/h 94 % 1.8 mm 0 W/m2
21:10 11.1 °C 10.2 °C 1011.7 hPa SSE 4.8 km/h 14.5 km/h 94 % 1.5 mm 0 W/m2
21:15 11.1 °C 10.2 °C 1011.7 hPa SSE 4.8 km/h 14.5 km/h 94 % 1.5 mm 0 W/m2
21:20 11.1 °C 10.2 °C 1011.7 hPa ESE 6.4 km/h 17.7 km/h 94 % 1.8 mm 0 W/m2
21:30 11.1 °C 10.2 °C 1011.7 hPa ESE 8.0 km/h 14.5 km/h 94 % 1.8 mm 0 W/m2
21:40 11.2 °C 10.2 °C 1011.7 hPa ESE 8.0 km/h 12.9 km/h 94 % 1.5 mm 0 W/m2
21:45 11.2 °C 10.4 °C 1011.7 hPa SSE 12.9 km/h 14.5 km/h 95 % 1.3 mm 0 W/m2
21:55 11.1 °C 10.3 °C 1012.1 hPa SE 4.8 km/h 12.9 km/h 95 % 1.3 mm 0 W/m2
22:00 11.1 °C 10.3 °C 1012.1 hPa ESE 4.8 km/h 12.9 km/h 95 % 1.0 mm 0 W/m2
22:10 11.1 °C 10.3 °C 1012.1 hPa SE 4.8 km/h 12.9 km/h 95 % 0.8 mm 0 W/m2
22:15 11.0 °C 10.2 °C 1012.1 hPa SE 6.4 km/h 14.5 km/h 95 % 0.8 mm 0 W/m2
22:20 11.0 °C 10.2 °C 1012.1 hPa ESE 1.6 km/h 14.5 km/h 95 % 0.5 mm 0 W/m2
22:30 10.9 °C 10.2 °C 1012.1 hPa ESE 6.4 km/h 12.9 km/h 95 % 0.5 mm 0 W/m2
22:40 10.9 °C 10.2 °C 1012.1 hPa ENE 6.4 km/h 12.9 km/h 95 % 0.5 mm 0 W/m2
22:45 10.9 °C 10.2 °C 1012.1 hPa ESE 8.0 km/h 14.5 km/h 95 % 0.5 mm 0 W/m2
22:55 10.9 °C 10.1 °C 1012.4 hPa SE 1.6 km/h 11.3 km/h 95 % 0.5 mm 0 W/m2
23:00 10.8 °C 10.1 °C 1012.4 hPa ESE 4.8 km/h 11.3 km/h 95 % 0.5 mm 0 W/m2
23:10 10.8 °C 10.0 °C 1012.4 hPa ESE 12.9 km/h 16.1 km/h 95 % 0.5 mm 0 W/m2
23:15 10.8 °C 10.0 °C 1012.4 hPa ESE 3.2 km/h 16.1 km/h 95 % 0.5 mm 0 W/m2
23:20 10.7 °C 10.0 °C 1012.4 hPa SE 3.2 km/h 12.9 km/h 95 % 0.5 mm 0 W/m2
23:25 10.7 °C 10.0 °C 1012.4 hPa ESE 4.8 km/h 12.9 km/h 95 % 0.5 mm 0 W/m2
23:30 10.7 °C 10.0 °C 1012.4 hPa East 3.2 km/h 12.9 km/h 95 % 0.5 mm 0 W/m2
23:40 10.7 °C 9.9 °C 1012.4 hPa ESE 3.2 km/h 16.1 km/h 95 % 0.3 mm 0 W/m2
23:50 10.7 °C 9.9 °C 1012.4 hPa ESE 3.2 km/h 12.9 km/h 95 % 0.3 mm 0 W/m2
23:55 10.7 °C 9.9 °C 1012.4 hPa SE 11.3 km/h 12.9 km/h 95 % 0.3 mm 0 W/m2
Avec l'autorisation de Weather Underground - 1.5 mb